Location: Blankensee
(53.5126°N, 14.3055°E)
Time: 17:41:55
(UTC+00:00)

SL-14 R/B - Pass Details

Date: 08 August 2020
Orbit: 517 x 555 km, 82.4° (Epoch: 19 September)

Event Time Altitude Azimuth Distance (km) Brightness Sun altitude
Rises 01:11:06 0° 348° (NNW) 2,710 7.6 -15.6°
Reaches altitude 10° 01:13:17 10° 348° (NNW) 1,807 6.6 -15.5°
Maximum altitude 01:17:15 87° 259° (W) 540 3.2 -15.1°
Enters shadow 01:19:55 20° 172° (S) 1,270 4.7 -14.9°
